Location: Endfield
(51.6667°N, 0.0667°W)
Time: 03:09:41
(UTC+00:00)

USA 245 - Pass Details

Date: 19 May 2024
Orbit: 270 x 999 km, 97.9° (Epoch: 15 June)

Event Time Altitude Azimuth Distance (km) Brightness Sun altitude
Exits shadow 20:44:10 - 150° (SSE) 1,149 4.3 -6.9°
Reaches altitude 10° 20:44:15 10° 149° (SSE) 1,110 4.3 -6.9°
Maximum altitude 20:46:28 49° 73° (ENE) 366 2.3 -7.2°
Drops below altitude 10° 20:48:41 10° 356° (N) 1,105 5.7 -7.4°
Sets 20:50:33 0° 350° (N) 1,949 7.2 -7.6°
